• în Republica Moldova
  • Lista ţărilor
  • Pe 7 zile
  • Temperatura apei
  • Hartă satelitară
  • Meteo pe hartă
  • Widget-uri
  • user-avatar
    Intrare

    Meteo pe oră la Adelaide

    Astăzi, 17 Iulie, Marţi

    Timp Temperatura Precipitaţii Vânt Presiune Umiditate
    00:00 +14°C° 0 mm 7 m/s 751 mmHg 56%
    01:00 +13°C° 0 mm 8 m/s 750 mmHg 56%
    02:00 +13°C° 0 mm 8 m/s 750 mmHg 55%
    03:00 +14°C° 0 mm 10 m/s 749 mmHg 52%
    04:00 +14°C° 0 mm 10 m/s 749 mmHg 50%
    05:00 +14°C° 0 mm 10 m/s 749 mmHg 49%
    06:00 +14°C° 0 mm 10 m/s 748 mmHg 48%
    07:00 +14°C° 0,3 mm 11 m/s 748 mmHg 52%
    08:00 +14°C° 0,3 mm 12 m/s 749 mmHg 56%
    09:00 +14°C° 0 mm 13 m/s 749 mmHg 61%
    10:00 +14°C° 0,3 mm 13 m/s 750 mmHg 59%
    11:00 +13°C° 0,3 mm 13 m/s 751 mmHg 57%
    12:00 +13°C° 0,3 mm 13 m/s 752 mmHg 55%
    13:00 +13°C° 0 mm 12 m/s 752 mmHg 53%
    14:00 +13°C° 0 mm 11 m/s 753 mmHg 51%
    15:00 +13°C° 0 mm 10 m/s 754 mmHg 49%
    16:00 +13°C° 0 mm 9 m/s 754 mmHg 51%
    17:00 +12°C° 0 mm 8 m/s 755 mmHg 54%
    18:00 +11°C° 0 mm 7 m/s 756 mmHg 56%
    19:00 +11°C° 0 mm 7 m/s 756 mmHg 58%
    20:00 +11°C° 0 mm 6 m/s 757 mmHg 60%
    21:00 +10°C° 0 mm 6 m/s 757 mmHg 63%
    22:00 +10°C° 0 mm 6 m/s 757 mmHg 65%
    23:00 +10°C° 0 mm 5 m/s 757 mmHg 67%

    Mâine, 18 Iulie, Miercuri

    Timp Temperatura Precipitaţii Vânt Presiune Umiditate
    00:00 +10°C° 0 mm 5 m/s 757 mmHg 69%
    01:00 +10°C° 0 mm 5 m/s 757 mmHg 70%
    02:00 +10°C° 0 mm 6 m/s 757 mmHg 71%
    03:00 +10°C° 0 mm 6 m/s 757 mmHg 72%
    04:00 +10°C° 0 mm 6 m/s 757 mmHg 74%
    05:00 +10°C° 0 mm 6 m/s 757 mmHg 75%
    06:00 +10°C° 0 mm 6 m/s 757 mmHg 77%
    07:00 +11°C° 0 mm 6 m/s 757 mmHg 74%
    08:00 +12°C° 0 mm 7 m/s 757 mmHg 72%
    09:00 +12°C° 0 mm 8 m/s 758 mmHg 69%
    10:00 +13°C° 0 mm 8 m/s 757 mmHg 66%
    11:00 +15°C° 0 mm 8 m/s 757 mmHg 63%
    12:00 +16°C° 0 mm 9 m/s 757 mmHg 60%
    13:00 +16°C° 0 mm 8 m/s 756 mmHg 58%
    14:00 +16°C° 0 mm 8 m/s 756 mmHg 57%
    15:00 +16°C° 0 mm 8 m/s 755 mmHg 55%
    16:00 +15°C° 0 mm 7 m/s 755 mmHg 58%
    17:00 +14°C° 0 mm 6 m/s 755 mmHg 60%
    18:00 +14°C° 0 mm 5 m/s 755 mmHg 63%
    19:00 +13°C° 0 mm 5 m/s 755 mmHg 62%
    20:00 +13°C° 0 mm 6 m/s 755 mmHg 62%
    21:00 +13°C° 0 mm 6 m/s 755 mmHg 61%
    22:00 +13°C° 0 mm 6 m/s 755 mmHg 61%
    23:00 +12°C° 0 mm 7 m/s 754 mmHg 61%

    Poimâine, 19 Iulie, Joi

    Timp Temperatura Precipitaţii Vânt Presiune Umiditate
    00:00 +12°C° 0 mm 7 m/s 754 mmHg 61%
    01:00 +12°C° 0 mm 7 m/s 754 mmHg 61%
    02:00 +12°C° 0 mm 8 m/s 753 mmHg 62%
    03:00 +12°C° 0 mm 8 m/s 753 mmHg 63%
    04:00 +12°C° 0 mm 8 m/s 753 mmHg 65%
    05:00 +12°C° 0 mm 8 m/s 753 mmHg 67%
    06:00 +12°C° 0 mm 8 m/s 752 mmHg 70%
    07:00 +12°C° 0,3 mm 8 m/s 752 mmHg 70%
    08:00 +13°C° 0,3 mm 8 m/s 752 mmHg 71%
    09:00 +13°C° 0,3 mm 8 m/s 752 mmHg 71%
    10:00 +12°C° 1,8 mm 8 m/s 752 mmHg 74%
    11:00 +12°C° 1,8 mm 7 m/s 752 mmHg 77%
    12:00 +11°C° 1,8 mm 7 m/s 751 mmHg 80%
    13:00 +10°C° 2,1 mm 7 m/s 751 mmHg 80%
    14:00 +9°C° 2,1 mm 7 m/s 751 mmHg 81%
    15:00 +8°C° 2,1 mm 7 m/s 751 mmHg 82%
    16:00 +8°C° 0,6 mm 7 m/s 752 mmHg 80%
    17:00 +8°C° 0,6 mm 7 m/s 753 mmHg 79%
    18:00 +8°C° 0,6 mm 7 m/s 753 mmHg 77%
    19:00 +8°C° 0,3 mm 7 m/s 754 mmHg 77%
    20:00 +8°C° 0,3 mm 7 m/s 754 mmHg 76%
    21:00 +6°C° 0,3 mm 7 m/s 754 mmHg 76%
    22:00 +6°C° 0,3 mm 7 m/s 755 mmHg 77%
    23:00 +6°C° 0,3 mm 7 m/s 755 mmHg 77%

    20 Iulie, Vineri

    Timp Temperatura Precipitaţii Vânt Presiune Umiditate
    00:00 +6°C° 0,3 mm 7 m/s 756 mmHg 77%
    01:00 +6°C° 0,1 mm 7 m/s 756 mmHg 76%
    02:00 +7°C° 0,1 mm 6 m/s 756 mmHg 76%
    03:00 +7°C° 0,1 mm 6 m/s 756 mmHg 75%
    04:00 +7°C° 0 mm 6 m/s 757 mmHg 74%
    05:00 +7°C° 0 mm 6 m/s 757 mmHg 74%
    06:00 +7°C° 0 mm 6 m/s 758 mmHg 73%
    07:00 +8°C° 0,1 mm 6 m/s 758 mmHg 71%
    08:00 +9°C° 0,1 mm 6 m/s 759 mmHg 68%
    09:00 +10°C° 0,1 mm 6 m/s 760 mmHg 65%
    10:00 +11°C° 0,1 mm 6 m/s 760 mmHg 61%
    11:00 +11°C° 0,1 mm 6 m/s 760 mmHg 57%
    12:00 +13°C° 0,1 mm 6 m/s 760 mmHg 53%
    13:00 +13°C° 0,1 mm 6 m/s 760 mmHg 54%
    14:00 +13°C° 0,1 mm 6 m/s 760 mmHg 56%
    15:00 +12°C° 0,1 mm 5 m/s 760 mmHg 57%
    16:00 +10°C° 0,1 mm 5 m/s 760 mmHg 61%
    17:00 +10°C° 0,1 mm 4 m/s 761 mmHg 65%
    18:00 +8°C° 0,1 mm 4 m/s 761 mmHg 69%
    19:00 +9°C° 0 mm 3 m/s 761 mmHg 70%
    20:00 +9°C° 0 mm 3 m/s 762 mmHg 71%
    21:00 +9°C° 0 mm 3 m/s 762 mmHg 72%
    22:00 +9°C° 0 mm 3 m/s 762 mmHg 72%
    23:00 +8°C° 0 mm 3 m/s 762 mmHg 73%

    21 Iulie, Sâmbătă

    Timp Temperatura Precipitaţii Vânt Presiune Umiditate
    00:00 +8°C° 0 mm 3 m/s 762 mmHg 73%
    01:00 +8°C° 0 mm 3 m/s 762 mmHg 75%
    02:00 +8°C° 0 mm 3 m/s 762 mmHg 77%
    03:00 +8°C° 0 mm 3 m/s 761 mmHg 79%
    04:00 +8°C° 0 mm 3 m/s 761 mmHg 80%
    05:00 +8°C° 0 mm 4 m/s 761 mmHg 81%
    06:00 +8°C° 0 mm 4 m/s 761 mmHg 82%
    07:00 +10°C° 0 mm 4 m/s 761 mmHg 78%
    08:00 +9°C° 0 mm 5 m/s 762 mmHg 75%
    09:00 +10°C° 0 mm 6 m/s 762 mmHg 72%
    10:00 +11°C° 0 mm 6 m/s 761 mmHg 69%
    11:00 +11°C° 0 mm 6 m/s 761 mmHg 65%
    12:00 +13°C° 0 mm 6 m/s 760 mmHg 62%
    13:00 +13°C° 0 mm 6 m/s 759 mmHg 61%
    14:00 +13°C° 0 mm 6 m/s 759 mmHg 60%
    15:00 +14°C° 0 mm 6 m/s 758 mmHg 59%
    16:00 +13°C° 0 mm 6 m/s 758 mmHg 62%
    17:00 +12°C° 0 mm 5 m/s 758 mmHg 65%
    18:00 +10°C° 0 mm 5 m/s 758 mmHg 69%
    19:00 +10°C° 0 mm 5 m/s 758 mmHg 67%
    20:00 +10°C° 0 mm 5 m/s 758 mmHg 66%
    21:00 +10°C° 0 mm 6 m/s 758 mmHg 65%
    22:00 +10°C° 0 mm 6 m/s 758 mmHg 63%
    23:00 +10°C° 0 mm 6 m/s 757 mmHg 61%

    22 Iulie, Duminică

    Timp Temperatura Precipitaţii Vânt Presiune Umiditate
    00:00 +10°C° 0 mm 7 m/s 757 mmHg 60%
    01:00 +10°C° 0 mm 7 m/s 756 mmHg 59%
    02:00 +10°C° 0 mm 7 m/s 756 mmHg 58%
    03:00 +10°C° 0 mm 7 m/s 756 mmHg 57%
    04:00 +10°C° 0 mm 7 m/s 755 mmHg 57%
    05:00 +10°C° 0 mm 7 m/s 755 mmHg 56%
    06:00 +10°C° 0 mm 7 m/s 755 mmHg 56%
    07:00 +10°C° 0 mm 8 m/s 755 mmHg 53%
    08:00 +11°C° 0 mm 8 m/s 754 mmHg 51%
    09:00 +12°C° 0 mm 8 m/s 754 mmHg 49%
    10:00 +13°C° 0 mm 8 m/s 753 mmHg 48%
    11:00 +15°C° 0 mm 9 m/s 753 mmHg 47%
    12:00 +16°C° 0 mm 9 m/s 752 mmHg 46%
    13:00 +16°C° 0 mm 9 m/s 751 mmHg 47%
    14:00 +16°C° 0 mm 9 m/s 750 mmHg 48%
    15:00 +16°C° 0 mm 9 m/s 750 mmHg 49%
    16:00 +17°C° 0 mm 8 m/s 750 mmHg 47%
    17:00 +17°C° 0 mm 8 m/s 750 mmHg 45%
    18:00 +17°C° 0 mm 8 m/s 750 mmHg 42%
    19:00 +17°C° 0 mm 8 m/s 750 mmHg 41%
    20:00 +17°C° 0 mm 8 m/s 750 mmHg 40%
    21:00 +17°C° 0 mm 8 m/s 750 mmHg 39%
    22:00 +17°C° 0,2 mm 7 m/s 750 mmHg 45%
    23:00 +16°C° 0,2 mm 7 m/s 750 mmHg 51%
    Arată mai mult